Temperature
16 16 16 16 15 15 15 15 15 15 15 15 15 15 15 15 15 14 14 14 14 14 14 14 14 14 14 14 13 13 13 13 13 13 12 12 12 12 12 12 12 12 12
15 15 15 15 15 15 15 15 15 15 15 15 15 15 15 15 14 14 14 14 14 14 14 14 14 14 14 13 13 13 13 13 13 13 12 12 12 12 12 12 11 11 11
15 15 15 15 15 15 15 15 15 14 14 15 14 15 14 14 14 14 14 14 14 14 14 14 14 14 13 13 13 13 13 13 13 13 12 12 12 12 11 11 11 11 11
15 15 15 15 15 15 15 15 14 14 14 14 14 14 14 14 14 14 14 14 14 13 13 14 14 13 13 13 13 13 13 13 13 12 12 12 12 11 11 11 11 11 11
15 14 14 14 14 14 14 14 14 14 14 14 14 14 14 14 14 14 14 14 14 14 13 13 13 13 13 13 13 13 13 13 12 12 12 11 11 11 11 11 11 11 10
14 14 14 14 14 14 14 14 14 14 14 14 14 14 14 14 14 14 14 13 13 13 13 13 13 13 13 13 13 13 13 12 12 12 12 11 11 11 11 11 11 10 10
14 14 14 13 14 13 13 13 13 13 13 13 14 14 13 13 13 13 13 13 13 13 13 13 13 13 13 13 13 13 13 12 12 12 12 12 11 11 11 11 11 10 10
14 14 13 13 13 13 13 13 13 13 13 13 13 13 13 13 13 13 13 13 13 13 13 13 13 13 13 13 12 12 12 12 12 12 12 12 11 11 11 11 11 10 10
14 13 13 13 13 13 13 13 13 13 13 13 13 13 13 13 13 13 13 13 13 13 12 12 12 12 12 12 12 12 12 12 12 12 12 12 11 11 11 11 10 10 10
13 13 13 13 12 12 12 12 12 12 12 12 12 12 12 12 12 12 12 12 12 12 12 12 12 12 12 12 12 12 12 12 12 11 11 11 11 11 11 11 10 10 10
13 13 13 12 12 12 12 12 12 12 12 12 12 12 12 12 12 12 12 12 12 12 12 12 12 12 12 12 12 12 12 11 11 11 11 11 11 10 10 10 10 10 10
13 12 12 12 12 12 12 12 12 12 12 11 12 12 12 12 12 12 12 12 12 11 11 12 12 12 12 11 11 11 11 11 11 11 10 10 10 10 10 10 10 9 9
12 12 12 12 12 12 11 11 11 11 11 11 11 11 11 11 11 11 11 11 11 11 11 11 11 11 11 11 11 11 11 11 10 10 10 10 10 10 9 9 9 9 9
12 12 12 11 11 11 11 11 11 11 11 11 11 11 11 11 11 11 11 11 11 11 11 11 11 10 10 10 10 10 10 10 10 10 10 9 9 9 9 9 9 8 8
12 11 11 11 11 11 11 11 11 11 11 11 11 11 11 11 11 11 11 11 10 10 10 10 10 10 10 10 10 10 10 9 9 9 9 9 9 8 8 8 8 8 8
11 11 11 11 11 11 11 11 10 10 10 10 10 10 10 10 10 10 10 10 10 10 10 10 9 9 9 9 9 9 9 9 9 9 8 8 8 8 8 8 8 7 7
11 10 10 10 10 10 10 10 10 10 10 10 10 10 10 10 10 10 10 10 9 9 9 9 9 9 9 9 9 8 8 8 8 8 8 8 8 8 8 7 7 7 7
10 10 10 10 10 10 10 10 10 10 10 10 9 9 9 9 9 9 9 9 9 9 9 9 8 8 8 8 8 8 8 8 8 8 8 8 7 7 7 7 7 7 7
10 10 9 9 9 9 9 9 9 9 9 9 9 9 9 9 9 9 8 8 8 8 8 8 8 8 8 8 8 8 7 7 7 7 7 7 7 7 7 7 7 6 6
9 9 9 9 9 9 9 9 9 9 9 9 9 9 8 8 8 8 8 8 8 8 8 8 7 7 7 7 7 7 7 7 7 7 7 7 6 6 6 6 6 6 6
9 9 9 9 8 8 8 8 8 8 8 8 8 8 8 8 8 8 8 8 7 7 7 7 7 7 7 6 6 6 6 6 6 6 6 6 6 6 6 6 5 5 5
8 8 8 8 8 8 8 8 8 8 8 8 8 8 8 7 7 7 7 7 7 7 7 7 7 7 6 6 6 6 6 6 6 6 6 5 5 5 5 5 5 5 5
8 8 7 7 7 7 7 7 7 7 7 7 7 7 7 7 7 7 7 7 7 7 7 6 6 6 6 6 6 6 5 5 5 5 5 5 5 5 5 4 4 4 4
7 7 7 7 7 7 7 7 6 6 7 7 7 7 7 7 6 6 6 6 6 7 6 6 6 6 6 5 5 5 5 5 5 5 4 4 4 4 4 4 4 4 3
6 6 6 6 6 6 6 6 6 6 6 6 6 6 6 6 6 6 6 6 6 6 6 6 5 5 5 5 5 5 5 5 4 4 4 4 4 4 3 3 3 3 3
6 5 5 5 5 5 5 5 5 5 5 5 5 6 6 5 5 5 5 6 5 5 5 5 5 5 5 5 5 4 4 4 4 4 3 3 3 3 3 3 3 3 2
Wind_Speed
3 3 2 2 2 2 2 2 2 1 2 2 2 2 2 2 2 3 2 1 1 0 0 2 2 2 2 1 1 1 2 3 2 1 1 2 3 4 5 5 7 7 6
3 3 2 2 2 2 2 2 1 2 1 1 2 2 2 2 2 2 2 1 1 1 1 1 2 2 2 1 1 1 2 2 3 2 0 1 2 3 4 3 4 5 6
4 3 2 1 2 2 1 1 1 2 1 1 2 2 2 2 1 1 1 1 1 0 0 1 1 2 2 1 1 1 1 2 3 3 1 1 1 1 2 2 2 2 4
4 3 2 1 2 2 1 1 1 1 1 1 1 2 3 2 1 2 1 1 0 0 1 1 2 2 2 1 1 1 2 2 3 2 2 1 1 1 2 1 0 0 1
5 4 3 2 2 3 2 2 1 1 1 1 2 3 2 2 2 2 1 0 0 0 0 1 2 3 3 2 2 2 2 2 2 2 2 1 1 1 2 2 2 1 0
5 4 3 3 2 3 3 2 2 2 1 1 2 2 2 2 3 3 1 1 1 0 0 1 1 2 3 3 3 3 3 3 3 3 2 2 3 2 2 2 2 2 1
4 4 4 4 3 3 3 3 2 2 2 2 2 1 2 2 2 2 1 1 1 1 1 1 1 2 2 1 2 2 2 1 3 4 3 3 3 3 3 2 2 2 3
4 4 4 4 3 2 3 3 3 2 2 2 2 2 2 2 1 1 1 1 1 1 1 1 2 2 2 2 2 1 1 2 2 3 3 3 2 2 3 4 4 2 0
4 4 4 4 4 3 4 4 3 2 2 2 2 3 3 2 1 1 1 1 2 2 2 1 2 2 2 3 2 2 1 2 2 3 4 4 3 2 2 2 2 2 1
4 4 3 4 4 4 4 4 3 3 3 3 3 3 3 3 3 2 2 1 1 1 1 0 2 2 2 3 2 3 2 2 1 1 1 2 3 3 3 3 3 3 2
3 3 3 3 3 4 3 3 3 4 3 3 3 3 3 4 4 4 3 2 1 1 1 1 1 2 2 2 2 2 3 2 2 2 2 1 1 2 2 2 2 3 3
3 3 3 3 3 3 3 3 3 4 4 3 3 3 2 3 3 4 3 2 1 1 1 1 2 3 2 2 2 2 2 1 1 1 1 1 1 1 2 2 2 2 3
3 4 3 3 2 2 3 3 2 3 3 3 3 3 2 2 3 4 4 3 3 1 1 2 2 3 3 2 3 3 2 1 1 2 2 2 2 2 2 2 2 1 1
4 4 4 4 3 3 3 3 3 3 3 3 3 3 3 2 2 2 2 3 2 1 1 1 2 3 2 2 2 2 2 2 3 3 2 2 1 1 2 1 1 1 1
3 3 4 4 4 3 3 3 4 4 4 4 4 3 3 3 4 4 3 3 3 2 1 0 0 1 2 2 2 2 2 2 3 2 2 2 2 2 2 1 1 1 1
3 3 3 3 3 3 3 2 3 4 5 5 5 4 3 4 4 5 5 4 4 4 3 2 2 3 3 4 3 3 3 3 3 3 3 3 3 3 3 2 2 2 2
3 3 2 3 3 3 4 4 3 1 2 3 4 5 5 5 5 5 4 3 3 5 3 3 4 4 4 3 3 3 3 3 3 3 3 3 3 3 3 3 3 3 3
2 3 2 3 3 3 4 4 4 3 2 2 2 4 5 6 6 6 5 3 2 3 3 4 4 3 3 3 3 3 3 3 2 2 3 3 3 3 3 3 3 4 3
2 2 2 2 2 3 3 3 3 4 3 3 2 2 3 4 4 5 5 3 4 4 4 4 3 3 3 3 3 3 3 3 3 2 3 3 3 2 3 3 3 4 3
1 2 2 2 2 2 3 3 3 3 3 3 3 3 3 2 2 3 4 3 4 4 4 4 4 3 3 3 3 3 2 2 3 3 3 3 2 2 2 3 3 3 3
1 1 2 2 2 3 3 3 3 3 3 3 3 3 5 4 4 5 5 5 4 4 4 4 4 3 3 2 2 3 3 3 2 3 2 2 2 2 2 2 2 2 2
1 1 1 2 2 2 3 3 3 3 4 4 3 3 5 4 4 4 4 4 4 3 3 3 2 2 3 3 3 3 3 3 2 2 2 2 2 2 2 2 2 2 2
1 1 2 2 2 2 2 2 2 2 3 3 2 2 3 3 3 3 4 4 3 3 2 2 3 2 2 3 3 3 3 3 3 3 3 3 3 3 3 3 4 3 4
1 2 2 2 2 2 2 2 2 3 2 2 2 2 2 3 3 3 3 3 3 3 2 3 3 3 3 3 3 4 4 3 3 3 4 3 3 3 3 3 4 4 4
2 2 2 2 2 2 2 2 3 3 2 2 2 2 2 2 3 3 2 2 3 3 3 3 3 3 4 4 4 4 5 5 4 3 3 3 3 3 3 4 3 3 3
2 2 2 2 2 2 3 3 3 3 3 3 3 2 2 2 3 3 2 2 2 3 3 3 4 4 4 4 5 5 6 6 5 5 4 3 3 3 3 3 4 4 4
Wind_Direction
145 136 126 131 128 132 133 145 148 127 120 133 156 160 158 146 138 134 148 157 132 93 246 149 129 107 94 87 100 81 83 108 125 43 91 95 106 111 120 143 143 143 143
150 141 132 147 155 152 145 147 136 134 139 158 148 141 136 127 124 132 159 153 141 153 229 134 128 118 107 86 93 115 118 123 131 133 75 93 106 129 133 135 143 149 147
150 150 148 157 163 145 155 158 152 142 135 118 121 130 131 126 122 124 122 95 72 111 101 104 124 124 136 140 138 129 132 130 128 139 155 129 114 131 115 113 113 124 162
150 158 164 173 158 157 165 140 139 132 146 141 124 122 124 127 114 102 73 94 111 45 63 86 94 108 139 161 157 150 133 130 132 137 154 160 161 180 127 138 87 30 178
154 160 178 178 148 158 150 147 146 134 134 111 99 100 104 107 98 103 109 206 156 59 64 85 103 108 116 126 138 143 135 141 143 149 169 163 174 150 180 188 183 189 291
161 166 171 162 146 159 157 156 157 142 118 91 94 98 109 108 91 89 117 261 238 215 228 210 175 124 108 109 116 120 137 163 175 169 181 187 204 195 191 189 179 161 259
164 158 157 156 148 164 168 162 164 161 146 145 139 135 126 114 116 103 77 266 218 215 234 208 193 142 127 139 142 145 140 166 177 174 186 208 207 201 178 181 184 183 212
158 161 163 162 160 169 171 167 174 178 170 169 163 163 142 142 137 153 255 248 224 199 195 203 186 186 177 161 173 164 184 210 203 188 191 208 210 194 182 189 192 194 234
160 167 171 170 169 174 177 176 183 187 194 185 173 172 163 180 190 184 176 238 227 215 199 192 170 173 166 152 169 190 205 242 210 181 186 197 196 186 169 144 159 157 222
171 174 182 177 174 181 186 185 183 174 195 199 188 183 175 182 197 192 191 208 229 236 195 161 156 160 163 155 174 183 196 225 201 175 201 221 198 190 181 167 173 177 192
164 172 185 189 188 185 183 182 181 181 192 201 193 198 192 185 191 190 185 184 224 225 209 192 161 128 146 161 174 186 204 210 207 189 190 199 177 160 160 166 167 169 184
171 181 192 194 193 194 183 187 186 185 195 207 208 210 203 184 178 191 194 212 229 218 223 206 196 172 170 196 203 208 214 197 184 177 170 173 170 174 185 171 179 179 191
186 195 195 196 187 185 185 184 185 186 199 209 208 208 205 184 189 190 198 217 240 234 222 188 191 196 192 207 205 205 206 193 181 188 210 213 200 185 169 167 178 183 250
199 196 196 195 196 194 190 188 185 194 206 211 210 213 210 193 187 189 208 221 223 241 275 195 184 192 204 209 205 210 211 209 193 201 209 207 185 164 170 165 166 171 209
205 200 202 202 195 194 194 199 199 203 202 205 210 203 197 211 216 199 188 199 206 211 175 114 210 198 199 210 211 215 212 212 214 209 198 200 195 187 193 182 169 169 200
213 214 208 203 198 194 191 203 218 213 209 208 208 200 213 214 208 205 210 209 203 186 161 194 217 218 214 213 215 214 211 209 212 207 204 202 199 201 203 196 191 199 215
227 219 212 210 205 202 198 192 202 233 201 204 214 210 211 212 209 208 213 207 197 175 188 216 223 226 226 219 215 211 214 215 208 206 209 209 204 203 200 200 202 210 223
232 226 222 215 206 208 210 207 202 199 205 230 234 217 209 209 211 211 198 156 192 194 211 225 229 227 227 224 220 215 215 211 207 212 218 216 207 204 205 205 206 211 220
240 213 209 216 214 214 214 207 204 207 209 211 209 221 215 201 198 199 178 185 204 218 221 228 231 226 225 222 222 216 209 206 207 205 209 211 211 208 211 210 209 217 214
243 225 212 215 218 224 220 212 209 209 214 213 212 210 184 169 189 195 203 214 216 223 225 225 228 229 224 219 214 211 210 208 207 209 210 209 203 200 213 214 210 213 218
252 226 218 226 226 230 228 216 207 205 210 217 224 212 192 201 208 208 208 215 220 220 220 221 220 220 223 220 213 212 212 215 207 205 208 211 209 208 214 218 224 225 222
249 221 222 234 237 232 233 229 213 210 215 220 225 214 198 209 214 214 213 219 224 220 210 205 213 216 214 212 208 204 210 216 215 212 213 215 217 216 213 216 218 223 231
253 241 246 250 249 242 245 247 244 236 230 227 218 206 207 219 219 222 221 216 212 209 207 206 210 214 213 217 209 199 209 217 213 203 207 217 221 217 218 223 227 228 235
264 251 246 248 250 245 240 246 247 252 251 234 222 215 214 228 233 233 226 215 204 205 204 203 206 212 212 213 211 203 207 218 217 215 204 206 219 228 227 230 230 230 232
265 252 249 249 246 241 243 248 249 249 251 253 239 229 222 225 239 246 237 224 209 210 215 218 221 223 218 212 215 215 209 199 199 208 217 210 217 230 236 238 233 233 228
267 261 253 247 241 238 236 237 241 240 239 245 245 237 233 240 248 250 248 245 234 225 224 228 228 229 228 229 228 217 204 200 200 201 202 205 208 226 235 235 233 231 229
Height
1519 1521 1522 1524 1525 1527 1528 1529 1530 1531 1532 1532 1533 1534 1534 1535 1535 1535 1535 1536 1536 1537 1537 1538 1538 1539 1539 1539 1540 1540 1541 1541 1541 1542 1543 1543 1543 1542 1542 1542 1541 1541 1541
1518 1519 1521 1522 1524 1525 1526 1527 1529 1529 1530 1531 1532 1532 1533 1533 1534 1534 1534 1535 1535 1535 1536 1537 1537 1537 1538 1538 1539 1539 1539 1540 1540 1540 1541 1542 1542 1542 1542 1541 1541 1541 1541
1516 1518 1519 1520 1522 1523 1525 1526 1527 1528 1528 1529 1530 1531 1531 1532 1533 1533 1533 1534 1534 1534 1535 1535 1536 1536 1536 1537 1538 1538 1538 1539 1539 1539 1540 1541 1541 1541 1541 1541 1541 1540 1540
1514 1516 1517 1518 1520 1521 1522 1524 1525 1526 1527 1528 1528 1529 1529 1530 1531 1531 1532 1532 1533 1533 1534 1534 1534 1535 1535 1536 1536 1537 1537 1537 1538 1538 1539 1539 1540 1540 1540 1540 1540 1540 1540
1512 1513 1515 1516 1517 1519 1520 1521 1523 1524 1525 1526 1527 1527 1528 1528 1529 1530 1530 1531 1531 1532 1532 1533 1533 1533 1533 1534 1535 1535 1535 1536 1536 1537 1537 1538 1538 1538 1538 1539 1539 1539 1539
1510 1511 1512 1514 1515 1516 1517 1519 1520 1522 1522 1523 1524 1525 1526 1526 1527 1528 1528 1529 1530 1530 1531 1531 1531 1531 1532 1532 1533 1533 1534 1534 1535 1535 1535 1536 1536 1536 1537 1537 1537 1537 1537
1507 1509 1510 1511 1512 1514 1515 1516 1518 1519 1520 1521 1522 1523 1524 1524 1525 1526 1526 1527 1528 1528 1529 1529 1529 1529 1530 1530 1531 1531 1532 1532 1533 1533 1533 1533 1534 1534 1535 1534 1535 1535 1535
1505 1506 1508 1509 1510 1511 1512 1514 1515 1516 1518 1519 1520 1521 1522 1522 1523 1523 1524 1525 1525 1526 1526 1527 1527 1527 1528 1528 1528 1529 1529 1530 1530 1531 1531 1531 1532 1532 1532 1533 1533 1533 1533
1503 1504 1505 1506 1507 1508 1510 1511 1513 1514 1515 1516 1517 1518 1519 1519 1520 1521 1521 1522 1523 1523 1524 1524 1524 1525 1525 1526 1526 1526 1526 1527 1528 1528 1528 1529 1529 1529 1530 1530 1530 1530 1529
1500 1502 1503 1504 1505 1506 1507 1508 1510 1511 1512 1514 1515 1516 1516 1517 1517 1518 1518 1519 1519 1520 1521 1521 1522 1522 1522 1523 1523 1523 1523 1524 1524 1525 1525 1525 1526 1526 1527 1527 1527 1527 1526
1498 1499 1500 1501 1502 1503 1504 1505 1507 1508 1509 1511 1512 1513 1513 1514 1514 1515 1515 1515 1516 1517 1517 1518 1518 1519 1519 1519 1520 1520 1520 1521 1521 1521 1521 1522 1522 1523 1523 1524 1524 1524 1524
1495 1496 1497 1498 1499 1500 1501 1502 1503 1504 1506 1507 1508 1509 1510 1511 1511 1512 1512 1512 1513 1513 1513 1514 1515 1515 1515 1516 1516 1517 1517 1518 1518 1518 1518 1518 1519 1519 1520 1520 1520 1520 1520
1492 1493 1494 1495 1496 1496 1497 1498 1500 1501 1502 1503 1504 1505 1505 1507 1508 1508 1509 1509 1509 1510 1510 1510 1511 1512 1512 1512 1513 1513 1513 1514 1514 1514 1515 1515 1516 1516 1516 1517 1517 1517 1517
1488 1489 1491 1492 1492 1493 1494 1495 1496 1497 1498 1499 1500 1500 1501 1502 1503 1504 1504 1505 1505 1506 1506 1507 1507 1508 1508 1509 1509 1509 1510 1510 1510 1510 1511 1512 1512 1513 1513 1513 1513 1513 1513
1484 1486 1487 1488 1489 1490 1491 1492 1492 1493 1494 1495 1496 1497 1497 1498 1499 1500 1501 1501 1501 1502 1502 1502 1503 1503 1504 1504 1505 1505 1506 1506 1507 1507 1507 1508 1508 1509 1509 1509 1509 1509 1509
1481 1482 1483 1484 1485 1486 1487 1487 1489 1490 1491 1491 1492 1492 1493 1495 1495 1496 1497 1497 1498 1498 1498 1498 1498 1498 1499 1500 1500 1501 1502 1502 1503 1503 1503 1504 1504 1504 1505 1505 1505 1505 1505
1477 1478 1479 1480 1481 1482 1483 1483 1484 1486 1486 1487 1488 1488 1489 1490 1491 1492 1492 1493 1493 1494 1493 1493 1493 1494 1494 1495 1496 1496 1497 1498 1498 1499 1499 1500 1500 1500 1501 1501 1501 1501 1501
1474 1475 1475 1476 1477 1477 1478 1479 1480 1480 1481 1482 1483 1484 1485 1486 1487 1487 1488 1488 1488 1488 1488 1489 1489 1489 1490 1490 1491 1492 1492 1493 1494 1494 1495 1495 1496 1496 1496 1496 1496 1496 1497
1470 1471 1472 1472 1473 1474 1474 1475 1475 1476 1476 1477 1478 1479 1480 1481 1482 1482 1482 1483 1483 1483 1484 1484 1485 1485 1485 1486 1487 1487 1488 1488 1489 1489 1489 1490 1490 1491 1491 1491 1491 1492 1492
1467 1467 1468 1468 1469 1470 1470 1471 1471 1472 1473 1473 1474 1474 1475 1476 1476 1476 1477 1477 1478 1478 1479 1480 1480 1481 1481 1481 1482 1482 1483 1483 1484 1484 1484 1485 1485 1486 1486 1486 1486 1487 1487
1463 1464 1464 1465 1465 1466 1466 1466 1467 1468 1468 1469 1469 1470 1471 1471 1471 1471 1472 1472 1473 1473 1474 1475 1475 1475 1476 1476 1476 1477 1477 1478 1478 1479 1479 1480 1480 1480 1481 1481 1481 1482 1482
1459 1459 1460 1460 1461 1461 1462 1462 1463 1463 1464 1464 1465 1466 1466 1467 1467 1467 1467 1468 1468 1469 1469 1470 1470 1470 1471 1471 1471 1471 1472 1472 1473 1473 1474 1475 1475 1475 1476 1476 1476 1476 1477
1455 1455 1456 1456 1457 1457 1458 1458 1459 1459 1459 1460 1460 1461 1461 1462 1462 1462 1462 1463 1463 1464 1464 1464 1465 1465 1465 1466 1466 1466 1466 1467 1468 1468 1469 1469 1470 1470 1471 1471 1471 1471 1472
1451 1451 1452 1452 1452 1453 1453 1454 1454 1454 1455 1455 1456 1456 1456 1456 1457 1457 1457 1457 1458 1458 1458 1459 1459 1459 1460 1460 1460 1461 1461 1462 1463 1463 1463 1464 1464 1465 1465 1465 1466 1466 1466
1447 1447 1447 1448 1448 1448 1449 1449 1449 1450 1450 1450 1451 1451 1451 1451 1451 1451 1452 1452 1452 1452 1453 1453 1454 1454 1454 1455 1455 1456 1456 1457 1457 1458 1458 1458 1459 1459 1460 1460 1460 1461 1461
1443 1443 1444 1444 1444 1444 1444 1445 1445 1445 1445 1446 1446 1446 1446 1446 1446 1446 1447 1447 1447 1447 1447 1448 1448 1449 1449 1449 1450 1450 1451 1451 1452 1452 1453 1453 1453 1454 1454 1454 1455 1455 1455